Probability
0 0 0 0 0 0 0 0 0 0 0 0 0 0 0 0 0 0 0 0 0 0 0 0 0 0 0 0 0 0 0 0 0 0 0 0 0 0 0 0 0 0 0
0 0 0 0 0 0 0 0 0 0 0 0 0 0 0 0 0 0 0 0 0 0 0 0 0 0 0 0 0 0 0 0 0 0 0 0 0 0 0 0 0 0 0
0 0 0 0 0 0 0 0 0 0 0 0 0 0 0 0 0 0 0 0 0 0 0 0 0 0 0 0 0 0 0 0 0 0 0 0 0 0 0 0 0 0 0
0 0 0 0 0 0 0 0 0 0 0 0 0 0 0 0 0 0 0 0 0 0 0 0 0 0 0 0 0 0 0 0 0 0 0 0 0 0 0 0 0 0 0
0 0 0 0 0 0 0 0 0 0 0 0 0 0 0 0 0 0 0 0 0 0 0 0 0 0 0 0 0 0 0 0 0 0 0 0 0 0 0 0 0 0 0
0 0 0 0 0 0 0 0 0 0 0 0 0 0 0 0 0 0 0 0 0 0 0 0 0 0 0 0 0 0 0 0 0 0 0 0 0 0 0 0 0 0 0
0 0 0 0 0 0 0 0 0 0 0 0 0 0 0 0 0 0 0 0 0 0 0 0 0 0 0 0 0 0 0 0 0 0 0 0 0 0 0 0 0 0 0
0 0 0 0 0 0 0 0 0 0 0 0 0 0 0 0 0 0 0 0 0 0 0 0 0 0 0 0 0 0 0 0 0 0 0 0 0 0 0 0 0 0 0
0 0 0 0 0 0 0 0 0 0 0 0 0 0 0 0 0 0 0 0 0 0 0 0 0 0 0 0 0 0 0 0 0 0 0 0 0 0 0 0 0 0 0
0 0 0 0 0 0 0 0 0 0 0 0 0 0 0 0 0 0 0 0 0 0 0 0 0 0 0 0 0 0 0 0 0 0 0 0 0 0 0 0 0 0 0
0 0 0 0 0 0 0 0 0 0 0 0 0 0 0 0 0 0 0 0 0 0 0 0 0 0 0 0 0 0 0 0 0 0 0 0 0 0 0 0 0 0 0
0 0 0 0 0 0 0 0 0 0 0 0 0 0 0 0 0 0 0 0 0 0 0 0 0 0 0 0 0 0 0 0 0 0 0 0 0 0 0 0 0 0 0
0 0 0 0 0 0 0 0 0 0 0 0 0 0 0 0 0 0 0 0 0 0 0 0 0 0 0 0 0 0 0 0 0 0 0 0 0 0 0 0 0 0 0
0 0 0 0 0 0 0 0 0 0 0 0 0 0 0 0 0 0 0 0 0 0 0 0 0 0 0 0 0 0 0 0 0 0 0 0 0 0 0 0 0 0 0
0 0 0 0 0 0 0 0 0 0 0 0 0 0 0 0 0 0 0 0 0 0 0 0 0 0 0 0 0 0 0 0 0 0 0 0 0 0 0 0 0 0 0
0 0 0 0 0 0 0 0 0 0 0 0 0 0 0 0 0 0 0 0 0 0 0 0 0 0 0 0 0 0 0 0 0 0 0 0 0 0 0 0 0 0 0
0 0 0 0 0 0 0 0 0 0 0 0 0 0 0 0 0 0 0 0 0 0 0 0 0 0 0 0 0 0 0 0 0 0 0 0 0 0 0 0 0 0 0
0 0 0 0 0 0 0 0 0 0 0 0 0 0 0 0 0 0 0 0 0 0 0 0 0 0 0 0 0 0 0 0 0 0 0 0 0 0 0 0 0 0 0
0 0 0 0 0 0 0 0 0 0 0 0 0 0 0 0 0 0 0 0 0 0 0 0 0 0 0 0 0 0 0 0 0 0 0 0 0 0 0 0 0 0 0
0 0 0 0 0 0 0 0 0 0 0 0 0 0 0 0 0 0 0 0 0 0 0 0 0 0 0 0 0 0 0 0 0 0 0 0 0 0 0 0 0 0 0
0 0 0 0 0 0 0 0 0 0 0 0 0 0 0 0 0 0 0 0 0 0 0 0 0 0 0 0 0 0 0 0 0 0 0 0 0 0 0 0 0 0 0
0 0 0 0 0 0 0 0 0 0 0 0 0 0 0 0 0 0 0 0 0 0 0 0 0 0 0 0 0 0 0 0 0 0 0 0 0 0 0 0 0 0 0
0 0 0 0 0 0 0 0 0 0 0 0 0 0 0 0 0 0 0 0 0 0 0 0 0 0 0 0 0 0 0 0 0 0 0 0 0 0 0 0 0 0 0
0 0 0 0 0 0 0 0 0 0 0 0 0 0 0 0 0 0 0 0 0 0 0 0 0 0 0 0 0 0 0 0 0 0 0 0 0 0 0 0 0 0 0
0 0 0 0 0 0 0 0 0 0 0 0 0 0 0 0 0 0 0 0 0 0 0 0 0 0 0 0 0 0 0 0 0 0 0 0 0 0 0 0 0 0 0
0 0 0 0 0 0 0 0 0 0 0 0 0 0 0 0 0 0 0 0 0 0 0 0 0 0 0 0 0 0 0 0 0 0 0 0 0 0 0 0 0 0 0
Height
5647 5655 5661 5667 5672 5676 5680 5683 5685 5687 5688 5688 5688 5687 5686 5684 5681 5678 5675 5671 5667 5662 5658 5653 5647 5641 5635 5629 5622 5615 5607 5598 5593 5588 5578 5568 5559 5550 5541 5530 5519 5508 5496
5637 5645 5652 5658 5663 5667 5671 5674 5677 5679 5680 5680 5680 5679 5677 5674 5671 5668 5664 5660 5655 5651 5645 5640 5634 5628 5621 5614 5606 5598 5590 5581 5573 5568 5560 5549 5538 5526 5517 5506 5493 5480 5467
5628 5636 5643 5649 5655 5659 5663 5666 5669 5671 5672 5672 5671 5670 5667 5665 5661 5657 5653 5649 5644 5639 5633 5627 5620 5613 5606 5598 5590 5582 5573 5564 5554 5545 5538 5527 5515 5501 5491 5480 5467 5454 5440
5620 5628 5635 5642 5647 5652 5656 5659 5661 5663 5664 5663 5662 5661 5658 5655 5651 5647 5642 5637 5632 5626 5620 5613 5606 5599 5591 5583 5574 5565 5555 5546 5535 5524 5515 5504 5491 5477 5464 5454 5445 5431 5419
5613 5622 5629 5636 5641 5646 5650 5652 5654 5655 5656 5655 5653 5651 5648 5644 5640 5636 5631 5626 5620 5613 5606 5599 5591 5583 5575 5566 5557 5547 5537 5526 5515 5504 5493 5480 5468 5454 5442 5430 5420 5412 5401
5609 5617 5625 5631 5636 5640 5643 5646 5647 5648 5647 5646 5644 5642 5638 5634 5629 5625 5620 5614 5607 5600 5593 5585 5576 5568 5559 5550 5540 5528 5516 5504 5492 5480 5469 5456 5444 5430 5419 5409 5400 5394 5388
5607 5615 5621 5626 5631 5635 5637 5639 5640 5640 5639 5637 5635 5632 5628 5623 5618 5613 5608 5601 5594 5586 5578 5570 5561 5552 5542 5533 5522 5510 5496 5480 5467 5455 5444 5432 5420 5409 5400 5393 5384 5378 5372
5606 5612 5618 5623 5627 5630 5632 5633 5633 5632 5631 5628 5625 5621 5617 5613 5607 5601 5595 5588 5581 5572 5564 5555 5546 5536 5525 5514 5504 5492 5477 5461 5447 5434 5422 5411 5401 5391 5384 5378 5371 5366 5361
5605 5611 5616 5619 5622 5624 5626 5626 5626 5624 5622 5619 5615 5611 5607 5602 5596 5589 5583 5575 5567 5559 5549 5539 5529 5519 5508 5497 5485 5472 5458 5442 5426 5413 5402 5393 5385 5378 5371 5365 5359 5354 5350
5605 5609 5613 5616 5618 5619 5620 5619 5618 5616 5613 5609 5605 5601 5596 5590 5584 5577 5570 5562 5555 5546 5536 5524 5513 5501 5489 5475 5462 5449 5437 5423 5411 5399 5389 5381 5374 5367 5360 5353 5347 5342 5337
5605 5608 5611 5612 5613 5613 5613 5612 5610 5607 5604 5600 5596 5590 5585 5579 5572 5564 5556 5548 5540 5531 5520 5508 5496 5482 5469 5454 5440 5427 5416 5406 5397 5388 5380 5373 5365 5358 5351 5344 5336 5330 5325
5603 5606 5607 5608 5608 5607 5606 5604 5601 5598 5594 5590 5585 5579 5573 5567 5560 5552 5543 5534 5524 5514 5503 5490 5477 5463 5448 5434 5421 5410 5401 5393 5386 5378 5371 5364 5357 5350 5342 5335 5327 5320 5314
5602 5603 5603 5603 5602 5601 5599 5596 5593 5590 5585 5581 5575 5569 5562 5555 5547 5539 5529 5519 5508 5496 5484 5470 5456 5443 5429 5417 5407 5398 5391 5383 5376 5370 5362 5355 5348 5340 5333 5327 5319 5312 5306
5599 5599 5598 5597 5596 5594 5591 5589 5585 5581 5576 5571 5565 5559 5552 5544 5535 5526 5515 5504 5492 5479 5465 5452 5438 5425 5415 5406 5398 5390 5383 5376 5369 5362 5355 5347 5339 5332 5324 5317 5311 5305 5300
5595 5594 5593 5592 5590 5587 5584 5581 5577 5572 5567 5561 5555 5548 5540 5532 5522 5511 5500 5488 5475 5463 5449 5436 5424 5414 5405 5397 5390 5384 5377 5370 5362 5355 5347 5340 5331 5323 5316 5309 5303 5297 5293
5590 5589 5588 5585 5583 5580 5576 5573 5568 5563 5557 5551 5544 5536 5527 5518 5507 5495 5483 5471 5458 5445 5433 5422 5413 5405 5398 5392 5385 5378 5371 5363 5355 5348 5340 5332 5324 5316 5309 5302 5295 5291 5286
5586 5584 5582 5579 5576 5573 5569 5565 5560 5554 5547 5540 5533 5524 5514 5503 5492 5480 5467 5454 5442 5431 5420 5412 5405 5399 5393 5387 5380 5373 5365 5357 5349 5341 5333 5325 5318 5310 5303 5296 5290 5285 5281
5581 5578 5576 5573 5569 5565 5561 5556 5551 5545 5537 5529 5520 5510 5499 5487 5476 5463 5451 5439 5428 5419 5411 5405 5400 5394 5389 5382 5376 5368 5360 5352 5344 5336 5327 5320 5312 5304 5298 5291 5286 5281 5276
5575 5572 5569 5566 5562 5558 5554 5548 5542 5535 5527 5518 5508 5496 5484 5471 5459 5447 5436 5426 5417 5410 5405 5400 5396 5391 5385 5379 5372 5364 5356 5348 5340 5331 5323 5315 5307 5300 5293 5287 5282 5277 5273
5570 5567 5563 5560 5556 5551 5546 5540 5533 5525 5516 5506 5495 5483 5470 5457 5444 5433 5424 5416 5410 5405 5401 5397 5393 5387 5382 5375 5368 5360 5353 5344 5336 5328 5319 5311 5303 5296 5290 5284 5279 5275 5271
5564 5561 5557 5553 5549 5544 5538 5531 5523 5514 5504 5493 5481 5468 5456 5444 5433 5423 5415 5410 5405 5402 5398 5395 5390 5385 5379 5372 5365 5358 5350 5342 5334 5326 5317 5309 5302 5294 5288 5283 5278 5274 5271
5558 5555 5551 5546 5541 5536 5529 5521 5512 5502 5492 5480 5467 5454 5442 5432 5423 5415 5410 5406 5403 5400 5396 5393 5388 5383 5377 5371 5364 5356 5348 5341 5333 5325 5317 5309 5301 5294 5288 5283 5278 5275 5272
5552 5549 5544 5539 5534 5527 5520 5511 5501 5491 5479 5467 5455 5443 5432 5423 5416 5411 5407 5404 5401 5398 5395 5391 5387 5381 5376 5369 5362 5355 5348 5341 5333 5325 5318 5310 5303 5296 5290 5284 5280 5277 5274
5546 5542 5537 5532 5525 5518 5510 5501 5490 5479 5467 5455 5444 5433 5425 5418 5413 5409 5405 5403 5400 5397 5394 5390 5385 5380 5375 5368 5362 5355 5348 5341 5334 5326 5319 5312 5305 5298 5292 5287 5283 5280 5277
5540 5535 5530 5524 5517 5509 5500 5490 5480 5468 5457 5445 5435 5426 5420 5414 5410 5407 5404 5402 5399 5396 5393 5389 5384 5380 5374 5368 5362 5355 5349 5342 5335 5328 5321 5314 5308 5301 5296 5292 5288 5285 5281
5533 5528 5522 5516 5509 5500 5491 5481 5470 5459 5448 5437 5428 5421 5416 5412 5409 5406 5404 5401 5398 5395 5392 5388 5384 5379 5374 5368 5362 5356 5350 5343 5337 5330 5324 5318 5311 5306 5301 5297 5293 5289 5286
Wind_Speed
50 48 46 45 45 44 44 43 42 41 40 40 40 40 41 42 43 45 47 48 50 51 52 54 56 58 60 62 65 67 68 70 71 71 73 75 78 80 83 87 91 94 96
47 45 44 44 43 43 42 42 41 40 39 39 39 40 41 43 44 46 48 49 51 52 54 56 58 60 63 65 67 68 69 71 74 74 75 79 82 86 89 92 94 95 94
43 43 42 42 42 41 41 40 39 39 38 39 40 41 42 44 46 47 49 50 52 54 56 58 60 63 65 67 68 69 71 73 76 78 80 84 88 92 93 93 92 90 86
41 41 40 40 40 39 39 37 37 37 38 39 40 42 43 45 47 48 50 51 53 55 58 60 63 64 66 67 69 71 73 76 79 83 86 89 91 93 93 90 85 79 72
38 38 37 37 36 36 35 35 35 36 38 39 41 42 44 46 48 49 50 52 55 57 60 62 64 65 67 69 71 73 76 80 84 88 90 91 91 91 87 82 75 66 59
34 34 33 33 32 32 33 33 34 36 37 39 41 43 44 46 47 49 51 54 56 59 61 63 65 66 68 70 73 77 82 86 90 92 92 91 89 85 78 69 61 54 47
29 29 29 29 29 29 30 31 33 35 37 40 42 44 45 46 48 50 53 55 58 60 62 63 65 67 70 73 77 82 87 91 93 92 90 86 80 72 64 57 52 47 43
25 24 24 25 25 27 28 30 33 35 38 40 41 43 44 47 49 52 54 56 59 61 62 64 66 70 74 78 82 86 89 91 90 87 82 74 65 58 52 48 45 42 39
19 19 20 21 23 26 28 31 34 36 37 39 40 43 45 48 50 53 55 57 58 60 63 66 70 74 78 83 87 89 88 86 81 74 66 59 52 49 46 44 42 40 38
14 15 18 21 24 26 28 30 32 35 36 39 41 44 46 49 51 54 55 57 58 61 65 70 74 78 83 88 89 87 81 73 65 57 52 49 46 44 44 43 43 41 39
14 17 19 21 24 26 27 30 32 34 37 39 42 45 47 50 52 53 55 58 61 64 69 73 78 83 87 88 84 76 67 58 51 47 44 43 42 42 43 43 43 41 39
16 17 19 21 23 25 27 30 32 34 37 40 43 45 48 50 51 54 57 61 65 69 73 77 82 85 85 79 70 60 53 48 44 42 41 40 41 41 42 42 41 40 38
14 16 18 20 23 25 27 30 32 35 38 41 43 45 47 50 52 56 60 65 69 73 77 80 82 80 73 63 54 48 43 40 39 38 38 39 40 41 40 39 38 37 36
13 15 17 20 22 25 28 31 33 36 38 40 42 44 48 51 55 60 65 69 72 75 77 78 75 67 57 48 42 38 37 37 37 37 37 39 39 39 39 37 35 33 31
13 16 18 21 24 27 29 32 34 36 37 40 43 46 50 54 60 64 68 70 72 74 74 70 61 51 42 38 35 34 35 36 37 37 38 38 38 38 37 36 33 30 29
15 18 20 23 25 28 30 32 34 36 38 42 45 50 54 59 64 67 69 71 72 70 65 56 46 38 33 31 32 33 35 35 36 37 37 37 37 36 34 33 31 28 27
17 20 22 24 26 28 30 32 34 38 41 45 49 54 59 63 66 68 70 71 67 60 51 42 34 30 28 29 31 33 34 35 36 36 36 36 35 34 33 30 28 26 25
19 21 23 25 27 28 30 33 37 41 45 50 54 59 63 66 68 69 68 63 56 47 38 31 27 25 27 29 31 33 34 35 35 35 35 35 34 33 31 29 26 25 23
21 23 24 26 27 29 32 36 40 44 49 53 58 63 66 68 68 66 61 53 44 35 28 24 23 24 27 29 31 33 34 35 35 36 36 35 33 32 29 27 25 23 21
22 23 25 26 28 32 35 39 44 48 53 57 62 65 66 66 63 58 50 41 32 25 21 20 22 24 27 29 31 33 34 35 36 36 35 34 32 30 27 25 23 21 19
23 24 26 28 31 35 38 43 47 52 56 61 64 65 64 61 55 47 38 30 22 18 18 19 21 24 27 29 31 32 33 34 35 35 34 33 31 28 26 24 21 18 16
24 25 27 30 34 38 42 46 51 55 60 63 65 64 60 53 44 35 27 21 16 15 17 19 21 24 27 29 30 31 32 33 34 34 33 32 30 28 25 23 20 17 15
25 27 30 33 37 41 46 50 54 58 62 63 62 58 51 42 33 25 20 16 14 15 17 19 21 24 26 28 30 30 31 31 32 32 32 31 29 27 25 22 19 16 15
27 29 32 36 40 44 49 53 57 60 62 61 57 50 40 31 24 19 15 13 13 14 16 19 21 23 25 27 29 30 30 31 31 31 31 30 29 27 25 22 20 18 16
28 31 35 38 43 47 51 55 59 61 60 57 50 40 31 23 18 15 13 13 13 15 16 18 20 22 25 26 28 29 30 30 31 31 30 30 29 27 25 23 20 19 18
30 33 37 41 45 49 53 56 59 60 57 50 41 31 23 18 15 13 12 13 14 15 17 18 20 22 24 26 27 27 28 29 30 30 29 29 28 26 24 22 21 20 19
Wind_Direction
237 238 238 239 241 244 248 251 255 259 263 268 273 277 281 285 287 289 290 291 293 294 294 296 297 299 299 300 301 302 302 303 303 303 303 303 303 302 302 302 302 301 300
233 233 235 237 239 243 247 251 255 259 264 269 275 279 282 285 288 289 291 292 293 294 296 297 299 300 301 301 302 303 303 303 304 304 304 304 304 303 303 303 303 302 301
227 228 231 234 238 243 247 251 255 260 266 271 276 280 283 286 288 290 291 293 294 295 297 298 300 301 302 303 303 304 304 305 305 305 306 305 305 304 304 304 304 303 302
221 224 228 232 237 242 247 252 257 262 268 273 278 282 284 287 289 290 292 293 295 297 298 300 301 302 303 304 304 305 305 305 306 306 307 306 306 305 305 305 304 303 301
216 221 226 231 237 242 248 253 259 265 271 276 280 283 286 287 289 291 293 294 296 298 300 301 302 303 304 305 305 306 306 306 307 307 307 306 306 305 305 305 304 302 301
213 219 225 231 237 243 249 256 262 269 274 278 281 284 285 287 289 292 294 296 298 299 301 302 303 304 305 306 307 308 308 308 308 307 307 306 306 306 306 305 304 302 299
210 217 225 231 238 245 253 260 266 272 277 280 281 284 286 289 291 293 296 298 300 301 302 303 304 305 306 307 308 309 309 309 308 308 307 307 307 307 306 306 305 303 300
208 217 226 234 242 250 258 264 270 275 277 279 282 285 288 291 293 296 298 300 301 303 304 305 306 307 308 308 309 309 309 308 307 307 308 308 308 308 308 307 305 303 301
206 217 228 239 249 256 262 268 272 274 278 281 285 288 291 293 296 298 300 302 303 305 306 306 307 308 308 309 309 310 309 308 309 309 310 311 311 311 311 310 309 307 304
208 223 235 245 252 258 264 269 274 278 282 285 289 291 294 296 299 301 303 304 305 306 307 308 309 309 310 310 310 310 309 310 310 311 312 313 313 313 313 313 311 309 307
217 231 239 247 256 263 270 274 278 282 286 290 293 295 298 300 302 304 305 306 307 308 308 309 309 310 311 311 311 311 311 312 312 312 312 313 313 314 314 314 313 311 310
224 238 248 257 264 270 276 280 285 288 292 295 297 299 302 303 305 306 307 308 309 309 310 310 311 312 313 313 313 313 314 315 315 314 314 314 315 314 314 314 313 313 312
241 252 260 268 274 279 283 288 291 294 297 299 301 303 305 306 308 309 309 310 311 311 311 312 313 314 315 315 315 317 318 318 318 318 317 317 317 316 315 315 314 314 313
260 268 274 279 284 288 291 294 296 299 301 303 305 307 308 309 310 311 311 312 312 313 313 315 315 316 316 317 319 320 321 322 321 321 320 320 320 319 318 317 315 314 313
280 284 287 289 292 294 297 299 301 303 305 307 308 310 311 312 312 313 313 313 313 314 315 316 317 318 319 321 323 325 325 324 324 324 324 324 323 322 321 319 318 316 314
290 292 294 296 298 300 302 304 306 308 310 311 312 313 313 314 314 315 314 315 315 317 318 319 320 321 323 326 328 329 328 327 327 326 327 327 327 326 325 323 321 319 318
298 299 301 303 304 306 308 309 311 312 314 315 315 316 316 316 316 316 316 317 318 319 320 321 323 326 329 332 333 334 333 333 332 331 331 331 331 331 330 328 325 324 322
304 305 307 308 310 311 312 314 315 317 317 318 318 318 318 318 317 318 318 319 320 322 323 325 328 332 335 337 338 339 339 339 338 337 336 335 335 334 333 332 330 328 327
308 310 311 312 314 315 316 318 319 319 319 320 320 320 320 319 319 320 321 321 323 325 327 331 334 337 340 341 342 343 343 343 342 341 340 339 338 337 337 336 335 334 334
311 313 314 316 317 319 320 321 321 321 322 322 322 322 322 321 321 322 323 324 326 328 332 337 340 342 344 345 345 346 346 347 346 346 345 345 344 344 343 342 342 342 343
313 315 317 318 320 321 322 323 323 323 324 324 324 324 323 323 324 325 326 328 330 334 338 341 344 346 347 347 348 349 350 350 351 351 352 352 351 351 351 351 351 353 355
315 317 319 321 322 323 324 325 325 325 325 326 326 326 326 326 327 328 330 333 336 339 343 344 346 348 349 350 351 352 352 353 354 356 357 357 358 359 359 359 1 4 8
316 318 320 322 324 325 326 326 327 327 327 328 328 327 328 329 330 333 336 339 340 342 344 346 348 350 351 353 354 355 356 356 358 359 1 2 4 5 7 10 14 19 21
317 319 322 323 325 327 327 328 328 329 329 329 329 330 330 332 335 337 340 342 342 343 345 347 349 351 353 354 356 358 359 0 2 3 5 8 11 13 17 21 25 28 27
317 320 323 325 326 328 328 329 330 331 331 330 331 331 332 334 337 340 342 344 345 345 347 348 350 352 354 355 357 360 2 3 5 7 8 11 15 19 23 26 29 30 30
318 321 324 326 327 329 330 331 332 332 331 331 332 332 333 335 338 340 343 344 345 346 347 348 350 352 354 356 358 1 3 5 7 9 12 15 19 22 25 27 30 32 32